Location: *
(49.4547°N, 7.9131°E)
Time: 05:00:25
(UTC+00:00)

SAR-Lupe-2 - Pass Details

Date: 22 September 2019
Orbit: 481 x 485 km, 98.2° (Epoch: 07 October)

Event Time Altitude Azimuth Distance (km) Brightness Sun altitude
Rises 19:04:25 0° 12° (NNE) 2,563 7.3 -16.3°
Reaches altitude 10° 19:06:30 10° 10° (N) 1,677 6.4 -16.6°
Maximum altitude 19:10:04 69° 287° (WNW) 521 3.8 -17.2°
Drops below altitude 10° 19:13:37 10° 204° (SSW) 1,659 6.3 -17.7°
Sets 19:15:40 0° 202° (SSW) 2,533 7.2 -18.0°
